Regional Weather Roundup
Issued by NWS

Home | Current Version | Previous Version | Text Only | Print | Product List | Glossary Off
Versions: 1 2 3 4 5 6 7 8 9 10 11 12 13 14 15 16 17 18 19 20 21 22 23 24 25 26 27 28 29 30 31 32 33 34 35 36 37 38 39 40 41 42 43 44 45 46 47 48 49 50

000
ASUS43 KLMK 270210
RWRKY
KENTUCKY REGIONAL WEATHER ROUNDUP
NATIONAL WEATHER SERVICE LOUISVILLE KY
900 PM EST MON JAN 26 2015

NOTE "FAIR" INDICATES FEW OR NO CLOUDS BELOW 12,000 FEET
WITH NO SIGNIFICANT WEATHER AND/OR OBSTRUCTIONS TO VISIBILITY.

KYZ001>023-026-027-061>063-070>075-270300-
WESTERN AND SOUTH CENTRAL KENTUCKY

CITY           SKY/WX    TMP DP  RH WIND       PRES   REMARKS
PADUCAH        CLOUDY    36  30  79 S3        29.94F
HENDERSON      CLOUDY    30  27  86 S3        29.96F
OWENSBORO      MOCLDY    29  28  96 S6        29.98F WCI  23
HOPKINSVILLE   CLOUDY    35  29  77 W1        29.96F
BOWLING GREEN  CLOUDY    31  28  89 CALM      29.99F FOG
GLASGOW        CLOUDY    30  30 100 CALM      29.97F FOG
$$

KYZ024-025-028>034-038-045-046-053-270300-
NORTH CENTRAL KENTUCKY

CITY           SKY/WX    TMP DP  RH WIND       PRES   REMARKS
LOUISVILLE/SDF LGT SNOW  31  26  82 SW6       29.95F WCI  25
LOUISVILLE/LOU CLOUDY    31  25  78 SW5       29.96S WCI  26
FORT KNOX      CLOUDY    28  25  86 SW6       29.94S WCI  22
$$

KYZ035>037-039>044-047>052-055>060-089>105-270300-
NORTHEAST KENTUCKY

CITY           SKY/WX    TMP DP  RH WIND       PRES   REMARKS
LEXINGTON      CLOUDY    28  22  78 CALM      29.94S
COVINGTON      MOCLDY    25  18  74 E6        29.93S WCI  18
FRANKFORT      CLOUDY    28  23  81 CALM      29.94R
$$

KYZ054-064>069-076>088-106>120-270300-
SOUTHEAST KENTUCKY

CITY           SKY/WX    TMP DP  RH WIND       PRES   REMARKS
JACKSON        CLOUDY    26  19  74 VRB3      29.92S
LONDON         CLOUDY    30  22  72 CALM      29.93F
SOMERSET       LGT SNOW  28  27  93 CALM      29.96F
MIDDLESBORO    CLOUDY    30  25  81 CALM      29.94F
MONTICELLO     LGT SNOW  28  28 100 CALM      29.98F FOG
$$




USA.gov is the U.S. government's official web portal to all federal, state and local government web resources and services.